| time (UTC) | temp F | wind direction | speed MPH | gust MPH | rain 1hr in | rain 24hr in | rain mn in | humidity % | barometer mb |
| 20260505003742 | 69 | 122 | 2.0 | 4.0 | 0.00 | 0.00 | 0.00 | 43 | 1014.2 |
| 20260505003240 | 69 | 84 | 1.0 | 4.0 | 0.00 | 0.00 | 0.00 | 43 | 1014.3 |
| 20260505002736 | 69 | 86 | 3.0 | 3.0 | 0.00 | 0.00 | 0.00 | 43 | 1014.4 |
| 20260505002234 | 69 | 83 | 2.0 | 3.0 | 0.00 | 0.00 | 0.00 | 42 | 1014.1 |
| 20260505001731 | 70 | 105 | 2.0 | 3.0 | 0.00 | 0.00 | 0.00 | 41 | 1014.0 |
| 20260505001229 | 71 | 93 | 2.0 | 3.0 | 0.00 | 0.00 | 0.00 | 40 | 1014.0 |
| 20260505000725 | 71 | 82 | 3.0 | 4.0 | 0.00 | 0.00 | 0.00 | 39 | 1014.0 |
| 20260505000226 | 71 | 104 | 2.0 | 3.0 | 0.00 | 0.00 | 0.00 | 39 | 1013.9 |
| 20260504235719 | 72 | 112 | 2.0 | 3.0 | 0.00 | 0.00 | 0.00 | 38 | 1013.9 |
| 20260504235215 | 72 | 83 | 1.0 | 4.0 | 0.00 | 0.00 | 0.00 | 38 | 1014.0 |
| 20260504234713 | 73 | 87 | 4.0 | 4.0 | 0.00 | 0.00 | 0.00 | 37 | 1013.7 |
| 20260504234210 | 73 | 99 | 2.0 | 4.0 | 0.00 | 0.00 | 0.00 | 36 | 1013.8 |
| 20260504233706 | 74 | 84 | 3.0 | 3.0 | 0.00 | 0.00 | 0.00 | 36 | 1013.7 |
| 20260504233202 | 75 | 122 | 2.0 | 3.0 | 0.00 | 0.00 | 0.00 | 33 | 1013.5 |
| 20260504232700 | 75 | 116 | 1.0 | 4.0 | 0.00 | 0.00 | 0.00 | 33 | 1013.7 |
| 20260504232156 | 76 | 146 | 2.0 | 5.0 | 0.00 | 0.00 | 0.00 | 32 | 1013.5 |
| 20260504231653 | 76 | 126 | 4.0 | 4.0 | 0.00 | 0.00 | 0.00 | 30 | 1013.4 |
| 20260504231150 | 76 | 151 | 4.0 | 8.0 | 0.00 | 0.00 | 0.00 | 30 | 1013.6 |
| 20260504230646 | 76 | 111 | 3.0 | 7.0 | 0.00 | 0.00 | 0.00 | 30 | 1013.6 |
| 20260504230145 | 77 | 134 | 5.0 | 11.0 | 0.00 | 0.00 | 0.00 | 29 | 1013.6 |
| 20260504225643 | 78 | 122 | 5.0 | 6.0 | 0.00 | 0.00 | 0.00 | 28 | 1013.7 |
| 20260504225138 | 79 | 133 | 3.0 | 4.0 | 0.00 | 0.00 | 0.00 | 29 | 1013.4 |
| 20260504224635 | 79 | 142 | 3.0 | 6.0 | 0.00 | 0.00 | 0.00 | 29 | 1013.7 |
| 20260504224132 | 79 | 134 | 3.0 | 6.0 | 0.00 | 0.00 | 0.00 | 29 | 1013.6 |
| 20260504223629 | 79 | 112 | 3.0 | 7.0 | 0.00 | 0.00 | 0.00 | 29 | 1013.7 |
| 20260504223125 | 79 | 121 | 2.0 | 9.0 | 0.00 | 0.00 | 0.00 | 30 | 1013.7 |
| 20260504222622 | 78 | 115 | 3.0 | 12.0 | 0.00 | 0.00 | 0.00 | 29 | 1013.6 |
| 20260504222120 | 79 | 187 | 3.0 | 8.0 | 0.00 | 0.00 | 0.00 | 29 | 1013.7 |
| 20260504221616 | 79 | 106 | 3.0 | 12.0 | 0.00 | 0.00 | 0.00 | 29 | 1013.6 |
| 20260504221114 | 79 | 82 | 3.0 | 4.0 | 0.00 | 0.00 | 0.00 | 28 | 1013.5 |
| 20260504220610 | 79 | 134 | 5.0 | 10.0 | 0.00 | 0.00 | 0.00 | 29 | 1013.6 |
| 20260504220108 | 79 | 163 | 8.0 | 9.0 | 0.00 | 0.00 | 0.00 | 29 | 1013.7 |
| 20260504215603 | 79 | 144 | 5.0 | 9.0 | 0.00 | 0.00 | 0.00 | 29 | 1013.7 |
| 20260504215101 | 80 | 162 | 7.0 | 8.0 | 0.00 | 0.00 | 0.00 | 29 | 1013.5 |
| 20260504214557 | 79 | 174 | 9.0 | 11.0 | 0.00 | 0.00 | 0.00 | 29 | 1013.8 |
| 20260504214053 | 80 | 129 | 6.0 | 8.0 | 0.00 | 0.00 | 0.00 | 29 | 1013.7 |
| 20260504213550 | 79 | 140 | 3.0 | 7.0 | 0.00 | 0.00 | 0.00 | 31 | 1013.8 |
| 20260504213047 | 80 | 108 | 7.0 | 11.0 | 0.00 | 0.00 | 0.00 | 29 | 1013.8 |
| 20260504212543 | 80 | 136 | 4.0 | 6.0 | 0.00 | 0.00 | 0.00 | 28 | 1013.9 |
| 20260504212040 | 80 | 140 | 8.0 | 10.0 | 0.00 | 0.00 | 0.00 | 29 | 1013.7 |
| 20260504211537 | 80 | 148 | 4.0 | 9.0 | 0.00 | 0.00 | 0.00 | 29 | 1013.6 |
| 20260504211034 | 80 | 175 | 6.0 | 11.0 | 0.00 | 0.00 | 0.00 | 29 | 1013.6 |
| 20260504210531 | 80 | 107 | 4.0 | 9.0 | 0.00 | 0.00 | 0.00 | 30 | 1013.7 |
| 20260504210027 | 80 | 140 | 5.0 | 8.0 | 0.00 | 0.00 | 0.00 | 30 | 1013.9 |
| 20260504205526 | 79 | 117 | 2.0 | 6.0 | 0.00 | 0.00 | 0.00 | 32 | 1013.8 |
| 20260504205023 | 79 | 102 | 3.0 | 9.0 | 0.00 | 0.00 | 0.00 | 29 | 1013.7 |
| 20260504204521 | 79 | 146 | 6.0 | 9.0 | 0.00 | 0.00 | 0.00 | 30 | 1014.0 |
| 20260504204020 | 80 | 149 | 8.0 | 8.0 | 0.00 | 0.00 | 0.00 | 29 | 1014.0 |
| 20260504203518 | 79 | 214 | 3.0 | 13.0 | 0.00 | 0.00 | 0.00 | 28 | 1014.1 |
| 20260504203015 | 79 | 110 | 2.0 | 15.0 | 0.00 | 0.00 | 0.00 | 32 | 1014.0 |
| 20260504202510 | 79 | 182 | 5.0 | 8.0 | 0.00 | 0.00 | 0.00 | 31 | 1014.2 |
| 20260504202007 | 79 | 193 | 3.0 | 8.0 | 0.00 | 0.00 | 0.00 | 33 | 1014.2 |
| 20260504201504 | 79 | 148 | 5.0 | 9.0 | 0.00 | 0.00 | 0.00 | 32 | 1014.2 |
| 20260504201002 | 79 | 131 | 4.0 | 10.0 | 0.00 | 0.00 | 0.00 | 32 | 1014.1 |
| 20260504200458 | 78 | 137 | 11.0 | 11.0 | 0.00 | 0.00 | 0.00 | 30 | 1014.3 |
| 20260504195955 | 78 | 173 | 5.0 | 14.0 | 0.00 | 0.00 | 0.00 | 30 | 1014.2 |
| 20260504195451 | 78 | 183 | 8.0 | 14.0 | 0.00 | 0.00 | 0.00 | 31 | 1014.2 |
| 20260504194948 | 78 | 204 | 5.0 | 14.0 | 0.00 | 0.00 | 0.00 | 31 | 1014.3 |
| 20260504194444 | 78 | 184 | 7.0 | 7.0 | 0.00 | 0.00 | 0.00 | 31 | 1014.4 |
| 20260504193940 | 77 | 196 | 5.0 | 9.0 | 0.00 | 0.00 | 0.00 | 33 | 1014.6 |
| 20260504193437 | 78 | 146 | 11.0 | 16.0 | 0.00 | 0.00 | 0.00 | 30 | 1014.7 |
| 20260504192936 | 78 | 174 | 6.0 | 13.0 | 0.00 | 0.00 | 0.00 | 31 | 1014.7 |
| 20260504192432 | 77 | 168 | 5.0 | 11.0 | 0.00 | 0.00 | 0.00 | 31 | 1014.6 |
| 20260504191932 | 77 | 142 | 7.0 | 11.0 | 0.00 | 0.00 | 0.00 | 30 | 1014.6 |
| 20260504191430 | 77 | 150 | 3.0 | 11.0 | 0.00 | 0.00 | 0.00 | 29 | 1014.6 |
| 20260504190930 | 77 | 124 | 5.0 | 10.0 | 0.00 | 0.00 | 0.00 | 30 | 1014.6 |
| 20260504190425 | 77 | 139 | 10.0 | 11.0 | 0.00 | 0.00 | 0.00 | 31 | 1014.8 |
| 20260504185923 | 77 | 174 | 6.0 | 9.0 | 0.00 | 0.00 | 0.00 | 32 | 1014.9 |
| 20260504185420 | 77 | 118 | 9.0 | 17.0 | 0.00 | 0.00 | 0.00 | 31 | 1014.9 |
| 20260504184915 | 76 | 151 | 6.0 | 6.0 | 0.00 | 0.00 | 0.00 | 32 | 1014.8 |
| 20260504184411 | 75 | 150 | 6.0 | 7.0 | 0.00 | 0.00 | 0.00 | 30 | 1015.0 |
| 20260504183908 | 76 | 208 | 2.0 | 10.0 | 0.00 | 0.00 | 0.00 | 32 | 1014.8 |
| 20260504183405 | 77 | 134 | 5.0 | 10.0 | 0.00 | 0.00 | 0.00 | 33 | 1015.1 |
| 20260504182903 | 77 | 137 | 2.0 | 12.0 | 0.00 | 0.00 | 0.00 | 30 | 1015.1 |
| 20260504182400 | 76 | 119 | 3.0 | 6.0 | 0.00 | 0.00 | 0.00 | 32 | 1015.3 |
| 20260504181856 | 75 | 84 | 4.0 | 10.0 | 0.00 | 0.00 | 0.00 | 31 | 1015.2 |
| 20260504181354 | 75 | 153 | 6.0 | 11.0 | 0.00 | 0.00 | 0.00 | 30 | 1015.3 |
| 20260504180853 | 76 | 157 | 7.0 | 12.0 | 0.00 | 0.00 | 0.00 | 31 | 1015.4 |
| 20260504180351 | 75 | 120 | 4.0 | 8.0 | 0.00 | 0.00 | 0.00 | 31 | 1015.3 |
| 20260504175849 | 75 | 104 | 4.0 | 13.0 | 0.00 | 0.00 | 0.00 | 33 | 1015.3 |
| 20260504175345 | 75 | 140 | 6.0 | 15.0 | 0.00 | 0.00 | 0.00 | 34 | 1015.3 |
| 20260504174843 | 75 | 76 | 3.0 | 9.0 | 0.00 | 0.00 | 0.00 | 36 | 1015.6 |
| 20260504174341 | 75 | 126 | 6.0 | 9.0 | 0.00 | 0.00 | 0.00 | 33 | 1015.6 |
| 20260504173837 | 74 | 129 | 5.0 | 12.0 | 0.00 | 0.00 | 0.00 | 33 | 1015.5 |
| 20260504173334 | 75 | 238 | 7.0 | 12.0 | 0.00 | 0.00 | 0.00 | 33 | 1015.7 |
| 20260504172831 | 75 | 146 | 5.0 | 8.0 | 0.00 | 0.00 | 0.00 | 35 | 1015.7 |
| 20260504172328 | 75 | 132 | 6.0 | 8.0 | 0.00 | 0.00 | 0.00 | 34 | 1015.8 |
| 20260504171824 | 74 | 285 | 0.0 | 5.0 | 0.00 | 0.00 | 0.00 | 36 | 1015.9 |
| 20260504171321 | 74 | 172 | 9.0 | 14.0 | 0.00 | 0.00 | 0.00 | 34 | 1016.0 |
| 20260504170818 | 74 | 154 | 7.0 | 11.0 | 0.00 | 0.00 | 0.00 | 36 | 1016.2 |
| 20260504170315 | 73 | 138 | 0.0 | 5.0 | 0.00 | 0.00 | 0.00 | 40 | 1016.1 |
| 20260504160233 | 71 | 54 | 7.0 | 10.0 | 0.00 | 0.00 | 0.00 | 45 | 1016.7 |
| 20260504150658 | 69 | 169 | 9.0 | 11.0 | 0.00 | 0.00 | 0.00 | 48 | 1017.3 |
| 20260504150155 | 68 | 170 | 6.0 | 9.0 | 0.00 | 0.00 | 0.00 | 51 | 1017.1 |
| 20260504141124 | 64 | 152 | 2.0 | 5.0 | 0.00 | 0.00 | 0.00 | 60 | 1017.4 |
| 20260504140621 | 64 | 153 | 5.0 | 9.0 | 0.00 | 0.00 | 0.00 | 58 | 1017.4 |
| 20260504140117 | 64 | 152 | 5.0 | 8.0 | 0.00 | 0.00 | 0.00 | 60 | 1017.4 |
| 20260504130545 | 58 | 115 | 3.0 | 5.0 | 0.00 | 0.00 | 0.00 | 71 | 1017.8 |
| 20260504110432 | 47 | 73 | 2.0 | 4.0 | 0.00 | 0.00 | 0.00 | 90 | 1017.8 |
| 20260504100349 | 44 | 85 | 2.0 | 4.0 | 0.00 | 0.00 | 0.00 | 92 | 1017.2 |
| 20260504081742 | 44 | 87 | 2.0 | 2.0 | 0.00 | 0.00 | 0.00 | 81 | 1017.6 |
| 20260504081239 | 45 | 101 | 2.0 | 3.0 | 0.00 | 0.00 | 0.00 | 80 | 1017.7 |
| 20260504080735 | 45 | 93 | 2.0 | 3.0 | 0.00 | 0.00 | 0.00 | 80 | 1017.4 |
| 20260504080232 | 45 | 107 | 2.0 | 3.0 | 0.00 | 0.00 | 0.00 | 80 | 1017.6 |
| 20260504070159 | 46 | 95 | 2.0 | 3.0 | 0.00 | 0.00 | 0.00 | 75 | 1017.6 |
| 20260504060120 | 46 | 107 | 3.0 | 4.0 | 0.00 | 0.00 | 0.00 | 73 | 1017.7 |
| 20260504050548 | 46 | 100 | 2.0 | 3.0 | 0.00 | 0.00 | 0.00 | 75 | 1017.8 |
| 20260504045542 | 45 | 79 | 2.0 | 3.0 | 0.00 | 0.00 | 0.00 | 77 | 1017.7 |
| 20260504045037 | 45 | 103 | 1.0 | 3.0 | 0.00 | 0.00 | 0.00 | 78 | 1017.8 |
| 20260504044535 | 45 | 68 | 2.0 | 3.0 | 0.00 | 0.00 | 0.00 | 79 | 1017.9 |
| 20260504044032 | 45 | 83 | 2.0 | 3.0 | 0.00 | 0.00 | 0.00 | 80 | 1018.1 |
| 20260504043529 | 45 | 68 | 2.0 | 2.0 | 0.00 | 0.00 | 0.00 | 80 | 1017.8 |
| 20260504043026 | 45 | 85 | 2.0 | 4.0 | 0.00 | 0.00 | 0.00 | 80 | 1018.0 |
| 20260504042523 | 46 | 79 | 2.0 | 2.0 | 0.00 | 0.00 | 0.00 | 79 | 1018.1 |
| 20260504042020 | 46 | 100 | 2.0 | 2.0 | 0.00 | 0.00 | 0.00 | 79 | 1017.8 |
| 20260504041516 | 45 | 108 | 2.0 | 3.0 | 0.00 | 0.00 | 0.00 | 79 | 1017.9 |
| 20260504041012 | 45 | 85 | 2.0 | 2.0 | 0.00 | 0.00 | 0.00 | 80 | 1017.9 |
| 20260504040509 | 45 | 83 | 1.0 | 2.0 | 0.00 | 0.00 | 0.00 | 79 | 1017.9 |
| 20260504040006 | 46 | 62 | 1.0 | 3.0 | 0.00 | 0.00 | 0.00 | 79 | 1017.7 |
| 20260504035503 | 46 | 97 | 2.0 | 3.0 | 0.00 | 0.00 | 0.00 | 79 | 1017.9 |
| 20260504034959 | 46 | 84 | 2.0 | 2.0 | 0.00 | 0.00 | 0.00 | 80 | 1018.0 |
| 20260504034457 | 46 | 113 | 1.0 | 3.0 | 0.00 | 0.00 | 0.00 | 79 | 1017.9 |
| 20260504033954 | 46 | 56 | 2.0 | 5.0 | 0.00 | 0.00 | 0.00 | 78 | 1018.0 |
| 20260504033452 | 46 | 86 | 2.0 | 2.0 | 0.00 | 0.00 | 0.00 | 78 | 1017.9 |
| 20260504032949 | 46 | 69 | 2.0 | 2.0 | 0.00 | 0.00 | 0.00 | 77 | 1017.9 |
| 20260504032445 | 46 | 55 | 2.0 | 3.0 | 0.00 | 0.00 | 0.00 | 76 | 1017.8 |
| 20260504031942 | 46 | 63 | 2.0 | 3.0 | 0.00 | 0.00 | 0.00 | 75 | 1017.7 |
| 20260504031439 | 46 | 78 | 2.0 | 2.0 | 0.00 | 0.00 | 0.00 | 74 | 1017.8 |
| 20260504030936 | 47 | 82 | 2.0 | 2.0 | 0.00 | 0.00 | 0.00 | 74 | 1017.9 |
| 20260504030433 | 46 | 97 | 1.0 | 2.0 | 0.00 | 0.00 | 0.00 | 76 | 1017.8 |
| 20260504025929 | 46 | 98 | 1.0 | 3.0 | 0.00 | 0.00 | 0.00 | 78 | 1017.7 |
| 20260504025426 | 46 | 86 | 2.0 | 3.0 | 0.00 | 0.00 | 0.00 | 78 | 1017.5 |
| 20260504024923 | 46 | 90 | 2.0 | 2.0 | 0.00 | 0.00 | 0.00 | 77 | 1017.7 |
| 20260504024420 | 46 | 55 | 2.0 | 3.0 | 0.00 | 0.00 | 0.00 | 78 | 1017.6 |
| 20260504023917 | 46 | 78 | 1.0 | 3.0 | 0.00 | 0.00 | 0.00 | 78 | 1017.7 |
| 20260504023413 | 47 | 92 | 2.0 | 2.0 | 0.00 | 0.00 | 0.00 | 77 | 1017.8 |
| 20260504022909 | 47 | 95 | 2.0 | 2.0 | 0.00 | 0.00 | 0.00 | 76 | 1017.7 |
| 20260504022406 | 47 | 80 | 2.0 | 2.0 | 0.00 | 0.00 | 0.00 | 75 | 1017.7 |
| 20260504021902 | 47 | 77 | 0.0 | 2.0 | 0.00 | 0.00 | 0.00 | 74 | 1017.8 |
| 20260504021359 | 47 | 87 | 0.0 | 3.0 | 0.00 | 0.00 | 0.00 | 74 | 1017.8 |
| 20260504020857 | 46 | 75 | 1.0 | 3.0 | 0.00 | 0.00 | 0.00 | 76 | 1017.7 |
| 20260504020353 | 46 | 73 | 2.0 | 3.0 | 0.00 | 0.00 | 0.00 | 77 | 1017.8 |
| 20260504015849 | 47 | 72 | 2.0 | 3.0 | 0.00 | 0.00 | 0.00 | 76 | 1017.8 |
| 20260504015345 | 47 | 69 | 2.0 | 3.0 | 0.00 | 0.00 | 0.00 | 74 | 1017.8 |
| 20260504014842 | 47 | 62 | 2.0 | 2.0 | 0.00 | 0.00 | 0.00 | 72 | 1017.7 |
| 20260504014337 | 48 | 64 | 2.0 | 3.0 | 0.00 | 0.00 | 0.00 | 71 | 1017.7 |
| 20260504013836 | 48 | 76 | 2.0 | 3.0 | 0.00 | 0.00 | 0.00 | 69 | 1017.7 |
| 20260504013333 | 48 | 73 | 2.0 | 2.0 | 0.00 | 0.00 | 0.00 | 69 | 1017.6 |
| 20260504012830 | 48 | 64 | 2.0 | 2.0 | 0.00 | 0.00 | 0.00 | 68 | 1017.4 |
| 20260504012327 | 48 | 83 | 2.0 | 2.0 | 0.00 | 0.00 | 0.00 | 68 | 1017.4 |
| 20260504011825 | 49 | 73 | 2.0 | 3.0 | 0.00 | 0.00 | 0.00 | 68 | 1017.5 |
| 20260504011321 | 49 | 80 | 2.0 | 2.0 | 0.00 | 0.00 | 0.00 | 66 | 1017.2 |
| 20260504010817 | 49 | 58 | 3.0 | 3.0 | 0.00 | 0.00 | 0.00 | 63 | 1017.1 |
| 20260504010313 | 50 | 65 | 2.0 | 3.0 | 0.00 | 0.00 | 0.00 | 62 | 1017.2 |
| 20260504005810 | 50 | 62 | 3.0 | 4.0 | 0.00 | 0.00 | 0.00 | 59 | 1017.0 |
| 20260504005307 | 51 | 65 | 2.0 | 2.0 | 0.00 | 0.00 | 0.00 | 58 | 1017.1 |
| 20260504004804 | 51 | 60 | 2.0 | 2.0 | 0.00 | 0.00 | 0.00 | 58 | 1017.0 |
| 20260504004302 | 52 | 44 | 2.0 | 2.0 | 0.00 | 0.00 | 0.00 | 58 | 1017.0 |